Weather History for Brier Island, NS

Change the Weather History Date:

Tuesday, February 5, 2013

  Actual Average Record
Temperature  
Mean Temperature 19 °F -  
Max Temperature 21 °F - - ()
Min Temperature 17 °F - - ()
Degree Days  
Heating Degree Days 46    
Moisture  
Dew Point 9 °F    
Average Humidity 60    
Maximum Humidity 71    
Minimum Humidity 44    
Precipitation  
Precipitation 0.02 in - - ()
Sea Level Pressure  
Sea Level Pressure 29.96 in    
Wind  
Wind Speed 26 mph ()    
Max Wind Speed 43 mph    
Max Gust Speed 54 mph    
T = Trace of Precipitation, MM = Missing Value Source: Averaged Metar Reports

Daily Weather History Graph

Daily Weather History Graph

Search for Another Location

Airport:

Trip Planner

Search our weather history database for the weather conditions in past years. The results will help you decide how hot, cold, wet, or windy it might be!

Date:

Astronomy

Feb. 05, 2013 Rise Set
Actual Time 7:38 AM AST 5:40 PM AST
Civil Twilight 7:07 AM AST 6:11 PM AST
Nautical Twilight 6:33 AM AST 6:45 PM AST
Astronomical Twilight 5:59 AM AST 7:19 PM AST
Moon 3:20 AM AST (2/5) 12:50 PM AST (2/5)
Length of Visible Light 11h 03m
Length of Day
10h 02m
Waning Crescent, 27% of the Moon is Illuminated
Feb 5
Waning Crescent
Feb 10
New
Feb 17
First Quarter
Feb 25
Full
Mar 4
Last Quarter

Hourly Weather History & Observations

Time (AST) Temp. Windchill Dew Point Humidity Pressure Visibility Wind Dir Wind Speed Gust Speed Precip Events Conditions
12:00 AM 23.2 °F 3.3 °F 11.8 °F 62% 29.72 in - West 41.4 mph 50.6 mph N/A   Unknown
1:00 AM 22.5 °F 2.1 °F 12.0 °F 64% 29.74 in - West 42.6 mph 51.8 mph N/A   Unknown
2:00 AM 21 °F - 10 °F 49% 29.76 in - West 42.6 mph - -  
2:00 AM 21.2 °F 0.3 °F 10.0 °F 62% 29.76 in - West 42.6 mph 49.5 mph N/A   Unknown
3:00 AM 19.9 °F -1.3 °F 7.7 °F 59% 29.79 in - West 41.4 mph 54.1 mph N/A   Unknown
4:00 AM 20.3 °F -0.1 °F 12.4 °F 71% 29.83 in - West 38.0 mph 46.0 mph N/A   Unknown
5:00 AM 19.2 °F -1.3 °F 9.3 °F 65% 29.87 in - West 36.8 mph 46.0 mph N/A   Unknown
6:00 AM 18.5 °F -1.5 °F 7.7 °F 63% 29.90 in - West 33.4 mph 42.6 mph N/A   Unknown
7:00 AM 18.3 °F -1.5 °F 9.5 °F 68% 29.93 in - West 32.2 mph 41.4 mph N/A   Unknown
8:00 AM 18 °F - 10 °F 58% 29.96 in - West 33.4 mph - -  
8:00 AM 18.5 °F -1.5 °F 9.5 °F 68% 29.96 in - West 33.4 mph 40.3 mph N/A   Unknown
9:00 AM 17.8 °F -1.4 °F 7.7 °F 65% 30.00 in - West 28.8 mph 35.7 mph N/A   Unknown
10:00 AM 18.7 °F 0.8 °F 7.3 °F 61% 30.02 in - West 25.3 mph 33.4 mph N/A   Unknown
11:00 AM 17.8 °F 0.3 °F 4.6 °F 57% 30.04 in - West 23.0 mph 28.8 mph 0.02 in   Unknown
12:00 PM 19.0 °F 3.2 °F 7.7 °F 61% 30.04 in - West 19.6 mph 25.3 mph N/A   Unknown
1:00 PM 19.9 °F 3.9 °F 9.0 °F 62% 30.02 in - West 20.7 mph 27.6 mph N/A   Unknown
2:00 PM 20 °F - 8 °F 46% 30.03 in - West 15.0 mph - -  
2:00 PM 19.6 °F 5.7 °F 7.9 °F 60% 30.03 in - West 15.0 mph 21.9 mph N/A   Unknown
3:00 PM 19.8 °F 5.9 °F 7.2 °F 58% 30.04 in - West 15.0 mph - N/A   Unknown
4:00 PM 20.3 °F 7.7 °F 7.7 °F 58% 30.05 in - West 12.7 mph 19.6 mph N/A   Unknown
5:00 PM 19.6 °F 7.4 °F 7.3 °F 59% 30.06 in - West 11.5 mph 19.6 mph N/A   Unknown
6:00 PM 19.4 °F 9.5 °F 8.1 °F 61% 30.06 in - West 8.1 mph - N/A   Unknown
7:00 PM 19.4 °F 10.4 °F 7.3 °F 60% 30.05 in - West 6.9 mph - N/A   Unknown
8:00 PM 20 °F - 7 °F 44% 30.06 in - West 8.1 mph - -  
8:00 PM 20.1 °F 10.3 °F 7.3 °F 58% 30.06 in - West 8.1 mph - N/A   Unknown
9:00 PM 21.6 °F 12.1 °F 9.5 °F 60% 30.06 in - NW 8.1 mph - N/A   Unknown
10:00 PM 21.6 °F 14.0 °F 9.0 °F 58% 30.06 in - NNE 5.8 mph - N/A   Unknown
11:00 PM 21.9 °F 13.4 °F 8.4 °F 56% 30.07 in - ENE 6.9 mph - N/A   Unknown